CW0060 Weather Reports


Display with metric or nautical units.
time (UTC)temp
F
wind
direction
speed
MPH
gust
MPH
rain 1hr
in
rain 24hr
in
rain mn
in
humidity
%
barometer
mb
20260905182705 67 351 2.0 5.0 0.00 0.00 0.00 50 1023.7
20260905181705 68 1 2.0 7.0 0.00 0.00 0.00 50 1023.5
20260905181205 68 354 3.0 7.0 0.00 0.00 0.00 49 1023.4
20260905180705 69 89 2.0 6.0 0.00 0.00 0.00 49 1023.3
20260905180206 69 23 2.0 8.0 0.00 0.00 0.00 48 1023.1
20260905175705 69 9 3.0 8.0 0.00 0.00 0.00 48 1023.1
20260905174705 69 307 3.0 9.0 0.00 0.00 0.00 47 1023.0
20260905173705 69 317 4.0 11.0 0.00 0.00 0.00 47 1023.0
20260905173205 69 347 4.0 11.0 0.00 0.00 0.00 47 1022.9
20260905172705 70 346 5.0 11.0 0.00 0.00 0.00 47 1022.9
20260905172205 70 28 4.0 11.0 0.00 0.00 0.00 47 1022.7
20260905171705 70 1 5.0 11.0 0.00 0.00 0.00 46 1022.7
20260905171207 70 246 5.0 12.0 0.00 0.00 0.00 46 1022.7
20260905170705 71 252 5.0 12.0 0.00 0.00 0.00 45 1022.6
20260905170232 71 311 5.0 12.0 0.00 0.00 0.00 45 1022.6
20260905165705 71 290 5.0 16.0 0.00 0.00 0.00 44 1022.6
20260905165205 71 349 6.0 16.0 0.00 0.00 0.00 45 1022.5
20260905164224 72 346 5.0 13.0 0.00 0.00 0.00 43 1022.4
20260905162709 73 302 6.0 12.0 0.00 0.00 0.00 41 1022.1
20260905161705 73 272 7.0 15.0 0.00 0.00 0.00 40 1022.0
20260905161205 73 307 7.0 16.0 0.00 0.00 0.00 39 1022.1
20260905160706 74 243 7.0 16.0 0.00 0.00 0.00 37 1022.0
20260905160205 74 222 7.0 16.0 0.00 0.00 0.00 38 1022.0
20260905155705 74 264 8.0 19.0 0.00 0.00 0.00 39 1021.9
20260905154705 74 250 8.0 19.0 0.00 0.00 0.00 39 1021.8
20260905154205 74 269 8.0 19.0 0.00 0.00 0.00 39 1021.9
20260905153705 74 265 8.0 18.0 0.00 0.00 0.00 38 1021.9
20260905153205 73 262 9.0 18.0 0.00 0.00 0.00 38 1021.8
20260905152205 74 257 8.0 17.0 0.00 0.00 0.00 38 1021.7
20260905151704 74 257 7.0 17.0 0.00 0.00 0.00 38 1021.7
20260905151206 75 259 7.0 14.0 0.00 0.00 0.00 38 1021.6
20260905150205 75 269 7.0 17.0 0.00 0.00 0.00 38 1021.6
20260905145706 74 245 8.0 17.0 0.00 0.00 0.00 38 1021.6
20260905145206 74 306 9.0 25.0 0.00 0.00 0.00 38 1021.7
20260905144706 74 252 10.0 25.0 0.00 0.00 0.00 39 1021.7
20260905144205 74 243 11.0 25.0 0.00 0.00 0.00 38 1021.5
20260905143706 74 276 9.0 21.0 0.00 0.00 0.00 39 1021.5
20260905143205 74 255 10.0 19.0 0.00 0.00 0.00 38 1021.5
20260905142705 74 245 10.0 19.0 0.00 0.00 0.00 39 1021.4
20260905142205 74 222 10.0 19.0 0.00 0.00 0.00 38 1021.3
20260905141705 75 356 10.0 18.0 0.00 0.00 0.00 38 1021.3
20260905141205 74 283 10.0 18.0 0.00 0.00 0.00 40 1021.3
20260905140705 75 290 10.0 21.0 0.00 0.00 0.00 40 1021.4
20260905140205 74 271 12.0 21.0 0.00 0.00 0.00 41 1021.5
20260905135705 74 243 12.0 21.0 0.00 0.00 0.00 41 1021.5
20260905134705 75 258 8.0 16.0 0.00 0.00 0.00 41 1021.5
20260905134205 74 281 9.0 18.0 0.00 0.00 0.00 43 1021.5
20260905133728 74 224 8.0 19.0 0.00 0.00 0.00 41 1021.4
20260905133226 74 269 10.0 19.0 0.00 0.00 0.00 41 1021.3
20260905131720 73 255 11.0 24.0 0.00 0.00 0.00 42 1021.4
20260905131205 73 250 9.0 19.0 0.00 0.00 0.00 42 1021.4
20260905130705 71 296 9.0 20.0 0.00 0.00 0.00 45 1021.5
20260905130206 71 290 10.0 20.0 0.00 0.00 0.00 44 1021.3
20260905125705 73 262 9.0 19.0 0.00 0.00 0.00 42 1021.4
20260905124705 72 300 8.0 18.0 0.00 0.00 0.00 45 1021.4
20260905124205 73 245 9.0 18.0 0.00 0.00 0.00 44 1021.5
20260905123705 73 240 9.0 17.0 0.00 0.00 0.00 44 1021.4
20260905123205 74 278 8.0 17.0 0.00 0.00 0.00 44 1021.5
20260905122705 73 253 7.0 17.0 0.00 0.00 0.00 46 1021.5
20260905122205 73 290 8.0 17.0 0.00 0.00 0.00 47 1021.4
20260905121705 72 245 8.0 17.0 0.00 0.00 0.00 48 1021.5
20260905121206 73 248 8.0 19.0 0.00 0.00 0.00 48 1021.4
20260905120705 73 295 8.0 19.0 0.00 0.00 0.00 49 1021.3
20260905115705 73 276 11.0 19.0 0.00 0.00 0.00 47 1021.5
20260905115205 72 210 11.0 18.0 0.00 0.00 0.00 47 1021.3
20260905114705 72 260 9.0 17.0 0.00 0.00 0.00 47 1021.3
20260905114206 71 283 8.0 17.0 0.00 0.00 0.00 46 1021.3
20260905113705 71 264 7.0 16.0 0.00 0.00 0.00 51 1021.4
20260905113206 70 321 8.0 16.0 0.00 0.00 0.00 54 1021.3
20260905112206 70 279 7.0 15.0 0.00 0.00 0.00 53 1021.4
20260905111205 70 259 10.0 21.0 0.00 0.00 0.00 54 1021.3
20260905110705 70 210 11.0 21.0 0.00 0.00 0.00 52 1021.3
20260905110205 71 248 10.0 21.0 0.00 0.00 0.00 52 1021.4
20260905105705 70 248 8.0 16.0 0.00 0.00 0.00 52 1021.4
20260905105206 69 262 7.0 16.0 0.00 0.00 0.00 55 1021.4
20260905104705 69 255 8.0 17.0 0.00 0.00 0.00 53 1021.4
20260905104206 69 286 10.0 18.0 0.00 0.00 0.00 56 1021.3
20260905103205 70 250 9.0 18.0 0.00 0.00 0.00 55 1021.4
20260905102205 69 240 9.0 15.0 0.00 0.00 0.00 56 1021.4
20260905101706 69 274 8.0 15.0 0.00 0.00 0.00 57 1021.4
20260905101205 68 255 7.0 16.0 0.00 0.00 0.00 59 1021.4
20260905100705 67 245 8.0 16.0 0.00 0.00 0.00 59 1021.4
20260905100205 68 271 9.0 16.0 0.00 0.00 0.00 58 1021.5
20260905095705 68 238 8.0 14.0 0.00 0.00 0.00 59 1021.4
20260905095206 68 285 8.0 15.0 0.00 0.00 0.00 60 1021.3
20260905094706 69 236 9.0 15.0 0.00 0.00 0.00 59 1021.3
20260905094206 69 229 9.0 16.0 0.00 0.00 0.00 60 1021.4
20260905093705 69 233 10.0 16.0 0.00 0.00 0.00 59 1021.5
20260905093205 69 255 8.0 18.0 0.00 0.00 0.00 59 1021.3
20260905092705 68 316 9.0 18.0 0.00 0.00 0.00 62 1021.3
20260905092206 68 265 9.0 18.0 0.00 0.00 0.00 61 1021.3
20260905091706 68 276 9.0 18.0 0.00 0.00 0.00 63 1021.4
20260905091205 67 238 9.0 18.0 0.00 0.00 0.00 63 1021.3
20260905090705 67 222 8.0 15.0 0.00 0.00 0.00 63 1021.2
20260905085705 67 276 6.0 14.0 0.00 0.00 0.00 65 1020.9
20260905085206 67 271 6.0 14.0 0.00 0.00 0.00 65 1020.8
20260905084205 67 324 6.0 16.0 0.00 0.00 0.00 66 1020.7
20260905083705 67 269 7.0 16.0 0.00 0.00 0.00 67 1020.7
20260905083205 67 300 7.0 16.0 0.00 0.00 0.00 68 1020.7
20260905082705 67 258 6.0 14.0 0.00 0.00 0.00 67 1020.6
20260905082206 66 269 7.0 14.0 0.00 0.00 0.00 70 1020.5
20260905081705 66 296 7.0 13.0 0.00 0.00 0.00 71 1020.6
20260905081205 65 234 6.0 13.0 0.00 0.00 0.00 73 1020.5
20260905080205 65 259 8.0 13.0 0.00 0.00 0.00 73 1020.6
20260905075707 65 252 8.0 13.0 0.00 0.00 0.00 75 1020.5
20260905075205 65 224 8.0 13.0 0.00 0.00 0.00 76 1020.5
20260905074705 65 203 7.0 13.0 0.00 0.00 0.00 76 1020.4
20260905074205 65 197 6.0 10.0 0.00 0.00 0.00 77 1020.4
20260905073205 64 248 6.0 13.0 0.00 0.00 0.00 79 1020.4
20260905072206 64 243 7.0 12.0 0.00 0.00 0.00 79 1020.4
20260905071706 63 221 6.0 12.0 0.00 0.00 0.00 79 1020.3
20260905071233 63 279 5.0 11.0 0.00 0.00 0.00 81 1020.2
20260905070705 62 269 6.0 10.0 0.00 0.00 0.00 82 1020.1
20260905070205 62 248 5.0 10.0 0.00 0.00 0.00 83 1020.0
20260905065206 62 243 5.0 10.0 0.00 0.00 0.00 84 1020.1
20260905064705 61 300 4.0 10.0 0.00 0.00 0.00 84 1020.2
20260905064206 61 240 4.0 8.0 0.00 0.00 0.00 84 1020.2
20260905062705 61 243 3.0 4.0 0.00 0.00 0.00 84 1020.0
20260905061705 61 269 1.0 3.0 0.00 0.00 0.00 84 1019.9
20260905061206 61 222 1.0 4.0 0.00 0.00 0.00 84 1019.8
20260905060706 61 205 1.0 4.0 0.00 0.00 0.00 84 1019.8
20260905060206 61 1 2.0 4.0 0.00 0.00 0.00 83 1019.6
20260905055705 61 205 1.0 3.0 0.00 0.00 0.00 83 1019.6
20260905055235 61 250 2.0 3.0 0.00 0.00 0.00 83 1019.6
20260905054705 60 202 1.0 3.0 0.00 0.00 0.00 83 1019.7
20260905053705 60 286 2.0 3.0 0.00 0.00 0.00 83 1019.5
20260905053206 60 269 2.0 3.0 0.00 0.00 0.00 82 1019.3
20260905052705 60 217 2.0 5.0 0.00 0.00 0.00 82 1019.2
20260905052204 60 135 2.0 5.0 0.00 0.00 0.00 82 1019.1
20260905051705 61 231 2.0 4.0 0.00 0.00 0.00 82 1019.1
20260905050706 61 245 2.0 4.0 0.00 0.00 0.00 82 1019.1
20260905050205 61 219 1.0 4.0 0.00 0.00 0.00 82 1019.1
20260905045706 61 229 2.0 4.0 0.00 0.00 0.00 82 1019.1
20260905045206 61 250 2.0 4.0 0.00 0.00 0.00 82 1019.1
20260905044705 61 222 2.0 5.0 0.00 0.00 0.00 82 1019.1
20260905044206 61 233 3.0 5.0 0.00 0.00 0.00 82 1018.8
20260905043705 61 222 3.0 5.0 0.00 0.00 0.00 82 1019.0
20260905043206 61 217 2.0 5.0 0.00 0.00 0.00 81 1018.8
20260905042705 61 226 2.0 4.0 0.00 0.00 0.00 81 1018.9
20260905042205 61 245 2.0 4.0 0.00 0.00 0.00 81 1018.7
20260905041705 61 229 2.0 4.0 0.00 0.00 0.00 81 1018.7
20260905041205 61 233 2.0 6.0 0.00 0.00 0.00 81 1018.7
20260905040705 61 295 2.0 6.0 0.00 0.00 0.00 81 1018.6
20260905040205 61 11 3.0 6.0 0.00 0.00 0.00 81 1018.5
20260905035705 61 236 3.0 4.0 0.00 0.00 0.00 81 1018.4
20260905035206 61 190 2.0 4.0 0.00 0.00 0.00 81 1018.5
20260905034705 61 250 1.0 4.0 0.00 0.00 0.00 81 1018.5
20260905034205 61 314 1.0 3.0 0.00 0.00 0.00 81 1018.6
20260905033704 61 20 1.0 4.0 0.00 0.00 0.00 81 1018.4
20260905033206 60 302 1.0 4.0 0.00 0.00 0.00 80 1018.4
20260905032705 60 178 2.0 5.0 0.00 0.00 0.00 80 1018.3
20260905032206 60 222 3.0 6.0 0.00 0.00 0.00 80 1018.2
20260905031707 60 220 3.0 6.0 0.00 0.00 0.00 80 1018.1
20260905031206 60 219 3.0 6.0 0.00 0.00 0.00 80 1018.1
20260905030705 61 257 4.0 6.0 0.00 0.00 0.00 80 1018.1
20260905030220 61 217 4.0 5.0 0.00 0.00 0.00 80 1017.9
20260905025706 61 229 3.0 5.0 0.00 0.00 0.00 79 1018.0
20260905025206 61 199 2.0 4.0 0.00 0.00 0.00 79 1017.9
20260905024205 61 212 1.0 3.0 0.00 0.00 0.00 78 1018.0
20260905023705 61 238 2.0 3.0 0.00 0.00 0.00 78 1018.0
20260905023205 61 277 2.0 2.0 0.00 0.00 0.00 78 1017.9
20260905022705 61 193 1.0 2.0 0.00 0.00 0.00 78 1017.9
20260905022207 61 295 1.0 2.0 0.00 0.00 0.00 78 1017.9
20260905021705 61 240 1.0 2.0 0.00 0.00 0.00 77 1017.8
20260905021205 61 240 1.0 2.0 0.00 0.00 0.00 77 1017.9
20260905020706 61 314 1.0 2.0 0.00 0.00 0.00 77 1017.8
20260905020205 61 212 1.0 2.0 0.00 0.00 0.00 77 1017.7
20260905015705 61 284 1.0 3.0 0.00 0.00 0.00 77 1017.8
20260905015204 61 324 1.0 3.0 0.00 0.00 0.00 77 1017.8
20260905014704 61 222 1.0 3.0 0.00 0.00 0.00 76 1017.7
20260905014205 62 151 1.0 3.0 0.00 0.00 0.00 76 1017.7
20260905013706 62 178 1.0 3.0 0.00 0.00 0.00 76 1017.7
20260905013205 62 122 1.0 3.0 0.00 0.00 0.00 75 1017.7
20260905012705 62 46 1.0 3.0 0.00 0.00 0.00 75 1017.8
20260905012206 62 193 1.0 3.0 0.00 0.00 0.00 75 1017.8
20260905011705 62 1 1.0 3.0 0.00 0.00 0.00 75 1018.0
20260905011206 62 314 1.0 3.0 0.00 0.00 0.00 74 1018.0
20260905010205 62 344 1.0 6.0 0.00 0.00 0.00 74 1017.7
20260905005705 62 46 2.0 8.0 0.00 0.00 0.00 73 1017.4
20260905005205 63 255 3.0 8.0 0.00 0.00 0.00 72 1017.4
20260905004705 63 264 2.0 11.0 0.00 0.00 0.00 72 1017.2
20260905004206 63 257 3.0 11.0 0.00 0.00 0.00 71 1017.5
20260905003706 63 269 3.0 11.0 0.00 0.00 0.00 71 1017.3
20260905002734 63 286 2.0 10.0 0.00 0.00 0.00 70 1017.1
20260905002205 63 283 2.0 10.0 0.00 0.00 0.00 70 1017.0
20260905001705 63 210 4.0 10.0 0.00 0.00 0.00 70 1016.6
20260905001205 63 198 4.0 11.0 0.00 0.00 0.00 70 1016.6
20260905000706 63 309 4.0 11.0 0.00 0.00 0.00 70 1016.8
20260905000205 63 311 4.0 11.0 0.00 0.00 0.00 70 1016.8
20260904235705 63 13 3.0 7.0 0.00 0.00 0.00 70 1016.7
20260904235206 63 300 2.0 7.0 0.00 0.00 0.00 71 1016.8
20260904234704 64 309 3.0 6.0 0.00 0.00 0.00 71 1016.7
20260904234205 64 240 3.0 6.0 0.00 0.00 0.00 71 1016.8
20260904233706 64 236 2.0 4.0 0.00 0.00 0.00 71 1016.8
20260904232706 64 259 2.0 4.0 0.00 0.00 0.00 70 1016.7
20260904232206 64 269 2.0 11.0 0.00 0.00 0.00 70 1016.5
20260904231705 64 269 3.0 11.0 0.00 0.00 0.00 69 1016.6
20260904231205 64 283 3.0 11.0 0.00 0.00 0.00 69 1016.6
20260904230705 64 269 4.0 10.0 0.00 0.00 0.00 69 1016.8
20260904230205 64 284 5.0 10.0 0.00 0.00 0.00 69 1016.6
20260904225205 65 290 5.0 14.0 0.00 0.00 0.00 67 1016.8
20260904224705 65 298 6.0 14.0 0.00 0.00 0.00 66 1016.7
20260904224206 65 269 5.0 11.0 0.00 0.00 0.00 65 1016.8
20260904223205 65 253 3.0 7.0 0.00 0.00 0.00 65 1016.7
20260904222206 66 300 3.0 16.0 0.00 0.00 0.00 66 1016.4
20260904221707 66 281 5.0 16.0 0.00 0.00 0.00 65 1016.5
20260904221206 66 293 6.0 20.0 0.00 0.00 0.00 64 1016.6
20260904220706 67 300 7.0 21.0 0.00 0.00 0.00 64 1016.7
20260904220205 67 8 8.0 21.0 0.00 0.00 0.00 63 1016.8
20260904215705 67 343 8.0 21.0 0.00 0.00 0.00 64 1017.0
20260904215206 68 344 7.0 18.0 0.00 0.00 0.00 64 1016.7
20260904214707 68 304 8.0 20.0 0.00 0.00 0.00 62 1016.5
20260904213705 69 295 10.0 22.0 0.00 0.00 0.00 60 1016.2
20260904213206 69 290 9.0 22.0 0.00 0.00 0.00 62 1015.9
20260904212205 71 285 10.0 22.0 0.00 0.00 0.00 64 1015.8
20260904211705 72 320 10.0 23.0 0.00 0.00 0.00 64 1015.8
20260904211211 73 350 9.0 23.0 0.00 0.00 0.00 63 1015.3
20260904210705 74 285 9.0 23.0 0.00 0.00 0.00 62 1015.1
20260904210205 75 290 10.0 22.0 0.00 0.00 0.00 61 1014.8
20260904205707 76 35 9.0 22.0 0.00 0.00 0.00 59 1014.7
20260904204705 76 297 8.0 16.0 0.00 0.00 0.00 58 1013.9
20260904204205 76 286 8.0 19.0 0.00 0.00 0.00 57 1013.9
20260904203705 77 283 8.0 23.0 0.00 0.00 0.00 57 1013.7
20260904203205 77 293 9.0 23.0 0.00 0.00 0.00 57 1013.7
20260904201205 77 286 9.0 19.0 0.00 0.00 0.00 56 1013.5
20260904200705 78 217 10.0 19.0 0.00 0.00 0.00 56 1013.4
20260904195706 78 255 8.0 17.0 0.00 0.00 0.00 55 1013.1
20260904195205 78 250 8.0 15.0 0.00 0.00 0.00 55 1013.1
20260904194705 78 258 7.0 17.0 0.00 0.00 0.00 55 1013.0
20260904194207 78 250 8.0 18.0 0.00 0.00 0.00 55 1012.8
20260904193705 78 269 9.0 18.0 0.00 0.00 0.00 55 1012.8
20260904193206 78 252 9.0 21.0 0.00 0.00 0.00 55 1012.8
20260904192706 78 293 10.0 21.0 0.00 0.00 0.00 54 1012.8
20260904192205 78 233 10.0 16.0 0.00 0.00 0.00 54 1012.7
20260904191705 78 264 8.0 16.0 0.00 0.00 0.00 54 1012.7
20260904191227 78 255 9.0 16.0 0.00 0.00 0.00 54 1012.6
20260904190726 78 265 8.0 14.0 0.00 0.00 0.00 54 1012.6
20260904190221 78 255 7.0 13.0 0.00 0.00 0.00 54 1012.5
20260904185705 78 269 7.0 12.0 0.00 0.00 0.00 53 1012.5
20260904184705 79 248 6.0 11.0 0.00 0.00 0.00 52 1012.5
20260904184206 79 262 6.0 11.0 0.00 0.00 0.00 52 1012.4
20260904183705 79 208 6.0 14.0 0.00 0.00 0.00 52 1012.2
20260904183206 79 281 6.0 14.0 0.00 0.00 0.00 51 1012.2